www.pogodaiklimat.ru

Погода и климат >> Архив погоды >> Пакистан >> Jacobabad


ПОГОДА в Jacobabad

  • Прогноз погоды в Jacobabad
  • Монитор погоды в Jacobabad
  • Климат города

АРХИВ ПОГОДЫ в Jacobabad

Время (UTC), дата Ветер
(напр.,м/с)
 
Видим.   Явления Облачность Т
(С)
Тd
(С)
f
(%)
Тe
(С)
Тes
(С)
Комфортность P
(гПа)
Po
(гПа)
Тmin
(С)
Tmax
(С)
R
(мм)
R24
(мм)
S
(см)
21 4.12 штиль 0 4000 м мгла ясно +15.5 +11.8 79 +15 +15 1017.3 1000.0
00 5.12 штиль 0 2000 м мгла ясно +14.5 +11.7 83 +14 +14 1016.9 1010.3
03 5.12 штиль 0 2000 м дым ясно +14.0 +11.2 83 +14 +14 1016.7 1009.9 +12.5
06 5.12 штиль 0 4000 м мгла ясно +21.5 +14.8 66 +25 +34 комфорт 1016.4 1009.8
09 5.12 штиль 0 4000 м мгла ясно +25.0 +14.1 51 +27 +37 жарко 1013.0 1013.0
12 5.12 штиль 0 2000 м мгла ясно +26.0 +13.3 45 +28 +28 жарко 1010.9 1004.6 +26.9
15 5.12 штиль 0 4000 м мгла ясно +20.5 +12.6 60 +22 +22 комфорт 1012.6 1000.0
18 5.12 штиль 0 2000 м мгла ясно +17.5 +13.1 75 +18 +18 1014.3 1007.8
21 5.12 штиль 0 2000 м мгла ясно +16.0 +12.4 79 +16 +16 1013.4 1000.0
00 6.12 штиль 0 2000 м мгла ясно +14.5 +11.7 83 +14 +14 1012.8 1006.2
03 6.12 штиль 0 2000 м дым 3/0
[Ac trans]
+15.0 +12.3 84 +15 +15 1013.6 1007.0 +12.5
06 6.12 СВ 1 4000 м мгла 3/0
[Ac trans]
+22.0 +13.4 58 +25 +32 комфорт 1015.3 1008.8
09 6.12 СВ 1 4000 м мгла ясно +25.0 +10.8 41 +26 +35 жарко 1012.8 1000.0
12 6.12 штиль 0 4000 м мгла ясно +24.5 +11.3 44 +26 +26 жарко 1011.5 1005.1 +25.5
15 6.12 штиль 0 4000 м мгла ясно +20.0 +12.0 60 +21 +21 комфорт 1013.7 1000.0
18 6.12 штиль 0 2000 м мгла ясно +17.0 +12.5 75 +17 +17 1015.9 997.8
21 6.12 штиль 0 2000 м мгла ясно +15.5 +11.8 79 +15 +15 1015.0 1000.0
00 7.12 штиль 0 2000 м мгла ясно +14.0 +11.2 83 +14 +14 1014.9 1008.2
03 7.12 штиль 0 2000 м дым ясно +13.0 +11.1 88 +12 +13 1016.6 1009.9 +12.0
06 7.12 штиль 0 4000 м мгла ясно +20.0 +13.0 64 +22 +31 комфорт 1017.1 1010.5
09 7.12 штиль 0 4000 м мгла ясно +23.0 +11.5 48 +25 +35 комфорт 1014.2 1000.0
12 7.12 штиль 0 4000 м мгла ясно +22.5 +9.7 44 +24 +25 комфорт 1012.3 1005.9 +23.9
15 7.12 штиль 0 4000 м мгла ясно +19.0 +10.8 59 +20 +20 1014.1 1014.0
18 7.12 штиль 0 2000 м мгла ясно +16.0 +10.4 69 +16 +16 1015.6 1009.0
21 7.12 штиль 0 2000 м мгла ясно +14.5 +9.7 73 +14 +14 1014.7 1000.0
00 8.12 штиль 0 2000 м мгла ясно +13.0 +10.1 83 +13 +13 1014.2 1007.5
03 8.12 штиль 0 2000 м дым ясно +13.5 +10.6 83 +13 +14 1016.2 1009.5 +12.5
06 8.12 штиль 0 4000 м дым ясно +20.0 +13.0 64 +22 +31 комфорт 1017.4 1010.8
09 8.12 штиль 0 4000 м мгла ясно +23.5 +12.2 49 +25 +35 комфорт 1014.5 1000.0
12 8.12 штиль 0 4000 м мгла ясно +24.0 +13.9 53 +26 +27 жарко 1012.8 1006.4 +25.0
15 8.12 штиль 0 4000 м мгла ясно +19.0 +10.8 59 +20 +20 1014.1 1000.0
18 8.12 штиль 0 2000 м мгла ясно +16.0 +10.4 69 +16 +16 1015.9 997.6
21 8.12 штиль 0 2000 м мгла ясно +14.0 +10.2 78 +14 +14 1015.2 1000.0
00 9.12 штиль 0 2000 м мгла ясно +13.0 +10.1 83 +13 +13 1014.8 1008.1
03 9.12 штиль 0 2000 м мгла ясно +12.5 +9.6 82 +12 +13 1015.8 1009.1 +12.1
06 9.12 штиль 0 4000 м мгла ясно +19.0 +10.8 59 +20 +29 1016.4 1009.9
09 9.12 штиль 0 4000 м мгла ясно +24.0 +11.7 46 +26 +35 жарко 1013.0 1000.0
12 9.12 штиль 0 4000 м мгла 3/0
[Ac trans]
+24.0 +11.7 46 +26 +26 жарко 1011.0 1004.6 +25.5
15 9.12 штиль 0 4000 м мгла ясно +19.5 +11.4 59 +21 +21 комфорт 1011.6 1012.0
18 9.12 штиль 0 2000 м мгла ясно +16.5 +10.9 69 +16 +16 1013.9 1007.3
21 9.12 штиль 0 2000 м мгла 3/0
[Ac trans]
+14.5 +10.7 78 +14 +14 1012.4 1000.0
00 10.12 штиль 0 2000 м мгла 3/0
[Ac trans]
+13.0 +10.1 83 +13 +13 1011.8 1005.1
03 10.12 штиль 0 2000 м дым 3/0
[Ac trans]
+15.0 +12.3 84 +15 +15 1013.0 1006.4 +13.1
06 10.12 СВ 1 4000 м дым ясно +20.0 +13.0 64 +23 +31 комфорт 1014.1 1007.6
09 10.12 СВ 1 4000 м дым ясно +23.0 +13.6 55 +26 +35 жарко 1011.8 1000.0
12 10.12 СВ 1 4000 м дым ясно +23.0 +13.6 55 +26 +27 жарко 1010.9 1004.5 +24.5
15 10.12 штиль 0 4000 м мгла ясно +19.0 +13.8 72 +20 +20 1013.3 1000.0
18 10.12 штиль 0 4000 м мгла ясно +17.0 +13.5 80 +17 +17 1015.7 997.8
21 10.12 штиль 0 4000 м мгла ясно +16.0 +13.3 84 +16 +16 1014.5 1000.0
00 11.12 штиль 0 4000 м мгла ясно +15.0 +12.3 84 +15 +15 1015.0 1008.4
03 11.12 штиль 0 1000 м дым ясно +14.0 +12.2 89 +14 +14 1016.9 1010.1 +13.1
06 11.12 штиль 0 4000 м дым ясно +18.0 +11.7 67 +18 +28 1018.8 1012.1
09 11.12 штиль 0 4000 м дым ясно +21.0 +12.2 57 +23 +32 комфорт 1015.9 1000.0
12 11.12 штиль 0 4000 м дым 3/0
[Ac trans]
+20.5 +12.6 60 +22 +23 комфорт 1015.3 1008.8 +22.5
15 11.12 штиль 0 4000 м мгла ясно +17.0 +13.5 80 +17 +17 1017.3 1000.0
18 11.12 штиль 0 4000 м мгла ясно +16.0 +13.3 84 +16 +16 1019.6 1012.9

 

Местоположение метеостанции Jacobabad (Пакистан): широта 28.30 долгота 68.47 высота над уровнем моря 56 м.

В архиве по умолчанию представлена погода в Jacobabad за последнюю неделю. Архивные данные за месяц целиком и за предыдущие месяцы, начиная с января 2011 года, Вы можете получить, выбрав интересующий диапазон дат из раскрывающегося списка и нажав кнопку "Ввод!".


*Определитесь, кто Вы:
робот инопланетянин человек

Внимание! Время в таблицах - всемирное. Для получения местного времени необходимо прибавить поправку, которая в Jacobabad равна 5 ч.

Смотрите также архив погоды в соседних городах и на ближайших метеорологических станциях:

Погода в Rohri (Пакистан) (82 км)
Погода в Sibi (Пакистан) (150 км)
Погода в Pad Idan (Пакистан) (165 км)
Погода в Khuzdar (Пакистан) (188 км)
Погода в Kalat (Пакистан) (202 км)
Погода в Barkhan (Пакистан) (214 км)
Погода в Khanpur (Пакистан) (220 км)
Погода в Nawabshah (Пакистан) (228 км)
Погода в Quetta Airport (Пакистан) (266 км)
Погода в Jaisalmer (Rajasthan, Индия) (287 км)

Пояснения к столбцам:

Ветер - указаны скорость ветра в м/с - средняя за 10 мин, порывы в срок и между сроками (в фигурных скобках) и направление, откуда дует ветер: С - северный, СВ - северо-восточный, В - восточный, ЮВ - юго-восточный, Ю - южный, ЮЗ - юго-западный, З - западный, СЗ - северо-западный.
Видимость - горизонтальная дальность видимости в метрах или километрах. При видимости от 1 до 10 км при отсутствии осадков обычно наблюдается дымка, при ухудшении видимости до 1 км и менее - туман. В сухую погоду видимость может ухудшаться дымом, пылью или мглою.
Явления - указаны атмосферные явления, наблюдавшиеся в срок или в последний час перед сроком; фигурными скобками обозначены явления, наблюдавшиеся между сроками (за 1-3 часа до срока); квадратными скобками обозначены град или гололедные отложения с указанием их диаметра в мм.
Облачность - указаны через наклонную черту общая и нижняя облачность в баллах и высота нижней границы облаков в метрах; квадратными скобками обозначены формы облаков: Ci - перистые, Cs - перисто-слоистые, Cc - перисто-кучевые, Ac - высококучевые, As - высокослоистые, Sc - слоисто-кучевые, Ns - слоисто-дождевые, Cu - кучевые, Cb - кучево-дождевые. Подробнее классификацию облаков см. в Атласе облаков (PDF).
T - Температура воздуха - температура, измеренная на высоте 2 м над землей.
Td - Температура точки росы - температура, при понижении до которой содержащийся в воздухе водяной пар достигнет насыщения.
f - Относительная влажность воздуха - влажноcть воздуха, измеренная на высоте 2 м над землей.
Te - Эффективная температура - температура, которую ощущает одетый по сезону человек в тени. Характеристика душности погоды. При расчете учитывается влияние влажности воздуха и скорости ветра на теплоощущения человека.
Tes - Эффективная температура на солнце - температура, которую ощущает человек, с поправкой на солнечный нагрев. Характеристика знойности погоды. Зависит от высоты солнца над горизонтом, облачности и скорости ветра. Ночью, в пасмурную погоду, а также при ветре 12 м/с и более поправка равна нулю.
P - Атмосферное давление - приведенное к уровню моря атмосферное давление.
Po - Атмосферное давление - измеренное на уровне метеостанции атмосферное давление.
Tmin - Минимальная температура - минимум температуры воздуха на высоте 2 м над землей.
Tmax - Максимальная температура - максимум температуры воздуха на высоте 2 м над землей.
R - Количество осадков - Количество выпавших осадков за период времени, мм. При наведении курсора мыши на число - период времени, за который выпало указанное количество осадков.
R24 - Количество осадков - Количество выпавших осадков за 24 часа, мм.
S - Снежный покров - Высота снежного покрова, см. При наведении курсора мыши на число - состояние снежного покрова и степень покрытия местности в баллах.